OpenBCM V1.08-5-g2f4a (Linux)

Packet Radio Mailbox

IZ3LSV

[San Dona' di P. JN]

 Login: GUEST





  
I0OJJ  > KEPS     10.12.24 14:55l 359 Lines 17194 Bytes #169 (0) @ AMSAT
BID : ORB24345.1
Read: GUEST
Subj: 2Line Orbital Elements 24345.AMSAT
Path: IZ3LSV<DB0ERF<DK0WUE<DK0WUE<VK5RSV<VK2RZ<LU9DCE<EA2RCF<I0OJJ
Sent: 241210/1350z @:I0OJJ.ITA.EU [Rome] obcm1.08-6-g5b69
From: I0OJJ @ I0OJJ.ITA.EU (Gustavo)
To:   KEPS @ AMSAT
X-Info: This message was generated automatically


QST de W1STR

AMSAT Orbital Elements for Amateur Satellites in TLE Format
From Orbital Analysis Office
New England Sci-Tech STEM Education Center
Natick, MA December 10, 2024
To all radio amateurs


These element sets describe the orbits of various satellites 
in use by the amateur radio community. For details see:
www.amsat.org/keplerian-elements-formats/

A daily update of element sets is available at:
www.amsat.org/tle/daily-bulletin.txt
or without bulletin text:
www.amsat.org/tle/dailytle.txt


AO-07
1 07530U 74089B   24344.48665142 -.00000015  00000-0  19633-3 0  9998
2 07530 101.9899 340.8484 0012375 109.2678  45.6699 12.53683558291003
UO-11
1 14781U 84021B   24344.47089490  .00003751  00000-0  41213-3 0  9994
2 14781  97.7301 308.8785 0006815 207.8733 152.2120 14.88219956174546
AO-27
1 22825U 93061C   24344.60071314  .00000368  00000-0  15822-3 0  9995
2 22825  98.7656  39.0091 0007363 288.1101  71.9279 14.30677407627698
FO-29
1 24278U 96046B   24344.50076448  .00000046  00000-0  80134-4 0  9999
2 24278  98.5877 256.2051 0350976  94.1990 269.9335 13.53224601398141
NOAA-15
1 25338U 98030A   24344.77562739  .00000454  00000-0  20504-3 0  9991
2 25338  98.5536   8.1305 0010506 165.7197 194.4282 14.26821545382476
GO-32
1 25397U 98043D   24344.81223487  .00000326  00000-0  16142-3 0  9990
2 25397  98.9477 314.3886 0001888  45.0576 315.0755 14.24208714372637
ISS
1 25544U 98067A   24344.92804203  .00018708  00000-0  32992-3 0  9997
2 25544  51.6394 164.7017 0006873 321.9825 201.4766 15.50416579485804
NO-44
1 26931U 01043C   24344.72915055  .00000542  00000-0  23474-3 0  9994
2 26931  67.0506 237.9509 0006823 260.7057  99.3273 14.31535634211235
SO-50
1 27607U 02058C   24344.58606739  .00003088  00000-0  41695-3 0  9995
2 27607  64.5557  41.8432 0034401  24.4594 335.8133 14.80478098182273
CO-55
1 27844U 03031E   24344.46635868  .00001011  00000-0  46195-3 0  9996
2 27844  98.6779 349.1152 0009735   2.8213 357.3019 14.23692312112722
CO-57
1 27848U 03031J   24344.26187803  .00000838  00000-0  39071-3 0  9990
2 27848  98.6808 349.0509 0009932  19.7820 340.3742 14.23071286112438
RS-22
1 27939U 03042A   24344.83894434  .00003279  00000-0  53819-3 0  9999
2 27939  98.3075 144.2217 0010905 221.6396 275.0403 14.71348844134091
NOAA-18
1 28654U 05018A   24344.77798959  .00000470  00000-0  27348-3 0  9995
2 28654  98.8614  60.1841 0013245 286.1137  73.8577 14.13448093  8064
CO-58
1 28895U 05043F   24344.82387625  .00004644  00000-0  78847-3 0  9997
2 28895  98.2234 121.3865 0015443 159.4270 200.7560 14.69593966 20463
CO-65
1 32785U 08021C   24344.49364898  .00010411  00000-0  82204-3 0  9990
2 32785  97.7707 309.0387 0013077 114.5649 245.6939 15.00822907901802
AAUSAT2
1 32788U 08021F   24344.23433092  .00077506  00000-0  21705-2 0  9994
2 32788  97.6052 327.1243 0001413  48.7563 311.3802 15.36333238905002
CO-66
1 32791U 08021J   24344.69017992  .00021539  00000-0  12851-2 0  9992
2 32791  97.7098 315.9098 0007348  75.0472 285.1571 15.11137631903039
RS-30
1 32953U 08025A   24344.76002148  .00000042  00000-0  23110-3 0  9998
2 32953  82.5031 340.2804 0020683  82.4672 277.8756 12.43154794750949
PRISM
1 33493U 09002B   24344.16918859  .00079762  00000-0  19996-2 0  9994
2 33493  98.1777  48.9016 0007748 359.6121   0.5115 15.39717977865753
NOAA-19
1 33591U 09005A   24344.75524187  .00000425  00000-0  25090-3 0  9991
2 33591  99.0252  42.2287 0014254 154.1254 206.0633 14.13225250816429
SRMSAT
1 37841U 11058D   24344.61387731  .00000698  00000-0  23600-3 0  9998
2 37841  19.9699 175.6026 0011725 223.4130 189.2597 14.11306744679370
RS-40
1 38735U 12041C   24344.53858302  .00000026  00000-0  11933-3 0  9993
2 38735  82.4774  60.5432 0017543 193.6088 166.4520 12.42621774560950
ZACUBE-1
1 39417U 13066B   24344.61296281  .00011365  00000-0  10689-2 0  9994
2 39417  97.7570 297.3014 0045380 300.6478  59.0271 14.93267626597725
Delfi-N3xt
1 39428U 13066N   24344.51188730  .00014383  00000-0  16218-2 0  9991
2 39428  97.8363 258.7808 0089948 237.9617 121.2837 14.83753618592034
GOMX-1
1 39430U 13066Q   24344.57505803  .00004416  00000-0  70650-3 0  9991
2 39430  97.7044 208.2967 0137118  54.5375 306.8538 14.66115951588728
LO-74
1 39440U 13066AA  24344.37778664  .00010052  00000-0  10853-2 0  9998
2 39440  97.8308 284.8064 0067688  60.8143 299.9823 14.86856839594330
AO-73
1 39444U 13066AE  24344.43875188  .00015941  00000-0  13488-2 0  9997
2 39444  97.7424 300.8466 0040864 277.7771  81.8812 14.97459494596280
DTUSAT-2
1 40030U 14033W   24344.38230743  .00015170  00000-0  11134-2 0  9991
2 40030  98.0320 302.2963 0009374 325.1053  34.9556 15.03544505568977
EO-80
1 40032U 14033Y   24344.61182174  .00013885  00000-0  10178-2 0  9991
2 40032  98.0234 302.4334 0006392 251.2870 108.7661 15.03632638569502
XW-2C
1 40906U 15049H   24344.79753584  .00152728  00000-0  12649-2 0  9992
2 40906  97.4567   8.7424 0005576  44.9394 315.2318 15.69755047511728
LILACSAT-2
1 40908U 15049K   24344.83372791  .00017400  00000-0  55433-3 0  9992
2 40908  97.5198 355.5032 0012965  89.5945 270.6782 15.32535897510330
IO-86
1 40931U 15052B   24337.09180034  .00002217  00000-0  20975-3 0  9992
2 40931   5.9986 232.5457 0013173 302.5393  57.3463 14.78392648496340
ChubuSat-2
1 41338U 16012B   24344.31632150  .00011220  00000-0  62682-3 0  9990
2 41338  31.0018 340.6052 0010969 199.9329 160.0882 15.12214295484093
ChubuSat-3
1 41339U 16012C   24344.67945918  .00009212  00000-0  52866-3 0  9990
2 41339  31.0082 338.1655 0011086 205.7948 154.2138 15.11195284484117
Horyu-4
1 41340U 16012D   24344.49437435  .00030514  00000-0  11588-2 0  9996
2 41340  31.0003 266.1344 0009263 320.6094  39.3875 15.25601501484851
Lapan A3
1 41603U 16040E   24344.80634542  .00005896  00000-0  22029-3 0  9990
2 41603  97.1396 350.8147 0011000 187.8081 172.2990 15.27666410470014
Pratham
1 41783U 16059A   24344.49235475  .00002011  00000-0  37472-3 0  9990
2 41783  97.8297 355.6299 0031922 181.5158 178.5955 14.65755517438216
CAS-2T
1 41847U 16066G   24344.60207127  .00002198  00000-0  32396-3 0  9991
2 41847  98.4434  54.5730 0349753   8.7570 351.9511 14.42522522424778
CAS-4B
1 42759U 17034B   24344.76822189  .00045746  00000-0  10792-2 0  9999
2 42759  43.0144 306.0779 0013021 110.5766 249.6489 15.41078676414365
CAS-4A
1 42761U 17034D   24344.81426185  .00047469  00000-0  11074-2 0  9992
2 42761  43.0183 303.9541 0013942 120.1839 240.0401 15.41387393414384
D-SAT
1 42794U 17036AF  24344.37200959  .00013881  00000-0  86125-3 0  9991
2 42794  97.4950 320.4569 0099308 272.1999  86.7859 15.05736572407037
TechnoSat
1 42829U 17042E   24344.74462987  .00007527  00000-0  61850-3 0  9997
2 42829  97.3852 156.3770 0012187 199.7597 160.3156 14.99375409403455
AO-91
1 43017U 17073E   24344.35942999  .00015125  00000-0  83539-3 0  9995
2 43017  97.5482 214.0335 0193916  65.2511 296.8755 14.99297769381859
S-Net D
1 43186U 18014G   24344.62947950  .00009541  00000-0  61571-3 0  9997
2 43186  97.5752 243.6392 0011185 121.4140 238.8183 15.08433975374919
S-Net B
1 43187U 18014H   24344.30121046  .00009802  00000-0  63257-3 0  9996
2 43187  97.5760 243.2771 0012107 118.6769 241.5678 15.08414890374865
S-Net A
1 43188U 18014J   24344.29871702  .00009786  00000-0  63133-3 0  9990
2 43188  97.5766 243.4033 0011905 119.3035 240.9385 15.08431073374864
S-Net C
1 43189U 18014K   24344.30325170  .00009797  00000-0  63197-3 0  9998
2 43189  97.5784 243.3898 0013776 113.4789 246.7889 15.08412855373412
Ten-Koh
1 43677U 18084G   24344.71420613  .00006649  00000-0  55892-3 0  9996
2 43677  98.0783 143.9538 0013882 154.1483 206.0435 14.98570040332988
PO-101
1 43678U 18084H   24344.78544238  .00003602  00000-0  31972-3 0  9993
2 43678  98.0861 148.3314 0008895 164.9395 195.2092 14.96816376333179
QO-100
1 43700U 18090A   24344.59755696  .00000160  00000-0  00000+0 0  9997
2 43700   0.0273  79.5534 0002296 216.2281  23.9812  1.00272727 22368
MinXSS-2
1 43758U 18099A   24344.15785701  .00023466  00000-0  11847-2 0  9999
2 43758  97.5313  44.4855 0015246  76.3427 283.9503 15.16999288329231
AO-95
1 43770U 18099N   24344.10929076  .00017501  00000-0  10299-2 0  9996
2 43770  97.5221  38.6312 0013163 121.3278 238.9242 15.11627896328931
RANGE-B
1 43772U 18099Q   24344.14409130  .00030387  00000-0  14338-2 0  9991
2 43772  97.5012  43.1424 0004708  30.9642 329.1869 15.19395420329191
RANGE-A
1 43773U 18099R   24344.41701841  .00010480  00000-0  72123-3 0  9995
2 43773  97.4787  32.1784 0013479  95.9397 264.3367 15.05996441328771
MOVE-II
1 43780U 18099Y   24344.14955774  .00060649  00000-0  19029-2 0  9996
2 43780  97.4963  47.0807 0005095  86.1779 274.0045 15.32808170329556
SNUSat 2
1 43782U 18099AA  24344.13153037  .00013168  00000-0  81383-3 0  9996
2 43782  97.4904  36.7655 0014594  66.6926 293.5838 15.09894816328922
SnugLite
1 43784U 18099AC  24344.57258614  .00017383  00000-0  10169-2 0  9999
2 43784  97.4717  36.5120 0005080  74.2757 285.9034 15.11905012329083
ITASat 1
1 43786U 18099AE  24344.10467086  .00013306  00000-0  84588-3 0  9993
2 43786  97.4872  36.7021 0016831 113.2008 247.0995 15.08827833328903
EAGLET 1
1 43790U 18099AJ  24344.57625007  .00009692  00000-0  66334-3 0  9990
2 43790  97.5058  37.5587 0014009  92.8370 267.4461 15.06217143328640
ESEO
1 43792U 18099AL  24344.53228980  .00003934  00000-0  30973-3 0  9990
2 43792  97.4844  33.0138 0010012  62.6363 297.5879 15.01329776328495
CSIM
1 43793U 18099AM  24344.77735499  .00060373  00000-0  19156-2 0  9994
2 43793  97.5113  49.5706 0008943  58.3078 301.9035 15.32425260329498
